Time,TemperatureF,DewpointF,PressureIn,WindDirection,WindDirectionDegrees,WindSpeedMPH,WindSpeedGustMPH,Humidity,HourlyPrecipIn,Conditions,Clouds,dailyrainin,SoftwareType,DateUTC
2014-09-21 00:01:00,59.0,53.5,29.79,SW,225,5.0,17.0,82,0.00,,,-99.99,Weather View 32 v70,2014-09-21 05:01:00,
2014-09-21 00:10:00,59.0,53.5,29.79,NW,315,5.0,17.0,82,0.00,,,-99.99,Weather View 32 v70,2014-09-21 05:10:00,
2014-09-21 00:20:00,59.0,53.5,29.79,SSW,202,4.0,17.0,82,0.00,,,-99.99,Weather View 32 v70,2014-09-21 05:20:00,
2014-09-21 00:25:00,59.0,53.5,29.80,WSW,248,5.0,17.0,82,0.00,,,-99.99,Weather View 32 v70,2014-09-21 05:25:00,
2014-09-21 00:35:00,59.0,53.8,29.80,WSW,248,11.0,20.0,83,0.00,,,-99.99,Weather View 32 v70,2014-09-21 05:35:00,
2014-09-21 00:40:00,59.0,53.8,29.80,NW,315,8.0,20.0,83,0.00,,,-99.99,Weather View 32 v70,2014-09-21 05:40:00,
2014-09-21 00:45:00,59.0,53.8,29.79,West,270,4.0,20.0,83,0.00,,,-99.99,Weather View 32 v70,2014-09-21 05:45:00,
2014-09-21 00:50:00,59.0,53.5,29.79,NW,315,4.0,20.0,82,0.00,,,-99.99,Weather View 32 v70,2014-09-21 05:50:00,
2014-09-21 00:55:00,58.0,52.5,29.79,WNW,292,5.0,20.0,82,0.00,,,-99.99,Weather View 32 v70,2014-09-21 05:55:00,
2014-09-21 01:00:00,58.0,52.5,29.80,NNW,338,4.0,20.0,82,0.00,,,-99.99,Weather View 32 v70,2014-09-21 06:00:00,
2014-09-21 01:10:00,58.0,52.9,29.80,NNW,338,9.0,20.0,83,0.00,,,-99.99,Weather View 32 v70,2014-09-21 06:10:00,
2014-09-21 01:16:00,58.0,52.9,29.80,West,270,4.0,20.0,83,0.00,,,-99.99,Weather View 32 v70,2014-09-21 06:16:00,
2014-09-21 01:25:00,58.0,52.5,29.81,South,180,4.0,20.0,82,0.00,,,-99.99,Weather View 32 v70,2014-09-21 06:25:00,
2014-09-21 01:30:00,58.0,52.5,29.81,WNW,292,10.0,20.0,82,0.00,,,-99.99,Weather View 32 v70,2014-09-21 06:30:00,
2014-09-21 01:35:00,58.0,52.5,29.81,WSW,248,3.0,20.0,82,0.00,,,-99.99,Weather View 32 v70,2014-09-21 06:35:00,
2014-09-21 01:40:00,57.0,51.5,29.81,West,270,3.0,18.0,82,0.00,,,-99.99,Weather View 32 v70,2014-09-21 06:40:00,
2014-09-21 01:46:00,57.0,51.5,29.81,WSW,248,9.0,18.0,82,0.00,,,-99.99,Weather View 32 v70,2014-09-21 06:46:00,
2014-09-21 01:55:00,57.0,51.5,29.81,WSW,248,4.0,18.0,82,0.00,,,-99.99,Weather View 32 v70,2014-09-21 06:55:00,
2014-09-21 02:00:00,57.0,51.9,29.81,West,270,2.0,18.0,83,0.00,,,-99.99,Weather View 32 v70,2014-09-21 07:00:00,
2014-09-21 02:10:00,57.0,51.5,29.82,NNW,338,4.0,22.0,82,0.00,,,-99.99,Weather View 32 v70,2014-09-21 07:10:00,
2014-09-21 02:20:00,56.0,50.6,29.81,West,270,3.0,22.0,82,0.00,,,-99.99,Weather View 32 v70,2014-09-21 07:20:00,
2014-09-21 02:25:00,56.0,50.6,29.82,WSW,248,3.0,22.0,82,0.00,,,-99.99,Weather View 32 v70,2014-09-21 07:25:00,
2014-09-21 02:30:00,56.0,50.9,29.82,NNW,338,3.0,22.0,83,0.00,,,-99.99,Weather View 32 v70,2014-09-21 07:30:00,
2014-09-21 02:40:00,56.0,50.9,29.82,NW,315,6.0,22.0,83,0.00,,,-99.99,Weather View 32 v70,2014-09-21 07:40:00,
2014-09-21 02:45:00,56.0,50.9,29.82,WSW,248,12.0,22.0,83,0.00,,,-99.99,Weather View 32 v70,2014-09-21 07:45:00,
2014-09-21 02:50:00,56.0,50.9,29.83,WSW,248,4.0,22.0,83,0.00,,,-99.99,Weather View 32 v70,2014-09-21 07:50:00,
2014-09-21 03:00:00,55.0,49.6,29.83,WNW,292,6.0,24.0,82,0.00,,,-99.99,Weather View 32 v70,2014-09-21 08:00:00,
2014-09-21 03:10:00,55.0,49.6,29.84,North,0,3.0,24.0,82,0.00,,,-99.99,Weather View 32 v70,2014-09-21 08:10:00,
2014-09-21 03:20:00,55.0,49.9,29.84,SW,225,3.0,24.0,83,0.00,,,-99.99,Weather View 32 v70,2014-09-21 08:20:00,
2014-09-21 03:26:00,55.0,49.9,29.85,WNW,292,1.0,24.0,83,0.00,,,-99.99,Weather View 32 v70,2014-09-21 08:26:00,
2014-09-21 03:31:00,55.0,49.9,29.85,SSW,202,5.0,24.0,83,0.00,,,-99.99,Weather View 32 v70,2014-09-21 08:31:00,
2014-09-21 03:40:00,55.0,50.2,29.85,WNW,292,7.0,24.0,84,0.00,,,-99.99,Weather View 32 v70,2014-09-21 08:40:00,
2014-09-21 03:45:00,54.0,49.3,29.86,WNW,292,4.0,24.0,84,0.00,,,-99.99,Weather View 32 v70,2014-09-21 08:45:00,
2014-09-21 03:55:00,55.0,50.6,29.86,WSW,248,4.0,24.0,85,0.00,,,-99.99,Weather View 32 v70,2014-09-21 08:55:00,
2014-09-21 04:01:00,55.0,50.6,29.86,West,270,5.0,18.0,85,0.00,,,-99.99,Weather View 32 v70,2014-09-21 09:01:00,
2014-09-21 04:10:00,55.0,50.6,29.86,WNW,292,6.0,18.0,85,0.00,,,-99.99,Weather View 32 v70,2014-09-21 09:10:00,
2014-09-21 04:15:00,55.0,50.6,29.86,SW,225,4.0,18.0,85,0.00,,,-99.99,Weather View 32 v70,2014-09-21 09:15:00,
2014-09-21 04:20:00,55.0,50.6,29.86,West,270,5.0,18.0,85,0.00,,,-99.99,Weather View 32 v70,2014-09-21 09:20:00,
2014-09-21 04:30:00,54.0,49.6,29.86,WSW,248,2.0,18.0,85,0.00,,,-99.99,Weather View 32 v70,2014-09-21 09:30:00,
2014-09-21 04:35:00,54.0,49.6,29.87,NW,315,10.0,18.0,85,0.00,,,-99.99,Weather View 32 v70,2014-09-21 09:35:00,
2014-09-21 04:40:00,55.0,50.6,29.87,West,270,2.0,18.0,85,0.00,,,-99.99,Weather View 32 v70,2014-09-21 09:40:00,
2014-09-21 04:45:00,55.0,50.6,29.87,NW,315,10.0,18.0,85,0.00,,,-99.99,Weather View 32 v70,2014-09-21 09:45:00,
2014-09-21 04:50:00,55.0,50.6,29.87,North,0,5.0,18.0,85,0.00,,,-99.99,Weather View 32 v70,2014-09-21 09:50:00,
2014-09-21 05:01:00,55.0,50.6,29.88,NNW,338,5.0,18.0,85,0.00,,,-99.99,Weather View 32 v70,2014-09-21 10:01:00,
2014-09-21 05:10:00,55.0,50.6,29.88,WNW,292,5.0,19.0,85,0.00,,,-99.99,Weather View 32 v70,2014-09-21 10:10:00,
2014-09-21 05:15:00,55.0,50.6,29.88,NNE,22,4.0,19.0,85,0.00,,,-99.99,Weather View 32 v70,2014-09-21 10:15:00,
2014-09-21 05:20:00,54.0,49.9,29.88,NW,315,4.0,19.0,86,0.01,,,-99.99,Weather View 32 v70,2014-09-21 10:20:00,
2014-09-21 05:30:00,54.0,50.5,29.89,West,270,3.0,19.0,88,0.01,,,-99.99,Weather View 32 v70,2014-09-21 10:30:00,
2014-09-21 05:35:00,54.0,50.5,29.89,ENE,68,3.0,19.0,88,0.01,,,-99.99,Weather View 32 v70,2014-09-21 10:35:00,
2014-09-21 05:40:00,54.0,50.8,29.89,West,270,6.0,19.0,89,0.01,,,-99.99,Weather View 32 v70,2014-09-21 10:40:00,
2014-09-21 05:45:00,54.0,51.1,29.90,SE,135,3.0,19.0,90,0.02,,,-99.99,Weather View 32 v70,2014-09-21 10:45:00,
2014-09-21 05:52:00,53.0,50.1,29.90,SSW,202,10.0,19.0,90,0.02,,,-99.99,Weather View 32 v70,2014-09-21 10:52:00,
2014-09-21 06:01:00,53.0,50.4,29.91,WNW,292,2.0,19.0,91,0.03,,,-99.99,Weather View 32 v70,2014-09-21 11:01:00,
2014-09-21 06:05:00,53.0,50.4,29.91,SSW,202,4.0,19.0,91,0.03,,,-99.99,Weather View 32 v70,2014-09-21 11:05:00,
2014-09-21 06:15:00,53.0,50.7,29.92,NW,315,3.0,15.0,92,0.04,,,-99.99,Weather View 32 v70,2014-09-21 11:15:00,
2014-09-21 06:20:00,53.0,51.0,29.92,WSW,248,6.0,15.0,93,0.03,,,-99.99,Weather View 32 v70,2014-09-21 11:20:00,
2014-09-21 06:25:00,53.0,51.0,29.92,SW,225,2.0,15.0,93,0.04,,,-99.99,Weather View 32 v70,2014-09-21 11:25:00,
2014-09-21 06:35:00,53.0,51.3,29.93,West,270,4.0,15.0,94,0.04,,,-99.99,Weather View 32 v70,2014-09-21 11:35:00,
2014-09-21 06:45:00,53.0,51.6,29.94,WSW,248,1.0,15.0,95,0.03,,,-99.99,Weather View 32 v70,2014-09-21 11:45:00,
2014-09-21 06:50:00,53.0,51.6,29.94,West,270,3.0,15.0,95,0.03,,,-99.99,Weather View 32 v70,2014-09-21 11:50:00,
2014-09-21 07:01:00,53.0,51.6,29.94,WSW,248,3.0,13.0,95,0.02,,,-99.99,Weather View 32 v70,2014-09-21 12:01:00,
2014-09-21 07:10:00,53.0,51.6,29.95,NW,315,2.0,13.0,95,0.01,,,-99.99,Weather View 32 v70,2014-09-21 12:10:00,
2014-09-21 07:15:00,53.0,51.9,29.95,ENE,68,3.0,11.0,96,0.01,,,-99.99,Weather View 32 v70,2014-09-21 12:15:00,
2014-09-21 07:20:00,53.0,51.9,29.96,WNW,292,3.0,11.0,96,0.01,,,-99.99,Weather View 32 v70,2014-09-21 12:20:00,
2014-09-21 07:30:00,53.0,51.9,29.96,WNW,292,3.0,13.0,96,0.00,,,-99.99,Weather View 32 v70,2014-09-21 12:30:00,
2014-09-21 07:35:00,53.0,51.9,29.97,West,270,7.0,13.0,96,0.00,,,-99.99,Weather View 32 v70,2014-09-21 12:35:00,
2014-09-21 07:45:00,53.0,51.9,29.97,WNW,292,5.0,13.0,96,0.00,,,-99.99,Weather View 32 v70,2014-09-21 12:45:00,
2014-09-21 07:50:00,53.0,51.9,29.97,WSW,248,2.0,13.0,96,0.00,,,-99.99,Weather View 32 v70,2014-09-21 12:50:00,
2014-09-21 07:56:00,53.0,51.9,29.97,WSW,248,2.0,13.0,96,0.00,,,-99.99,Weather View 32 v70,2014-09-21 12:56:00,
2014-09-21 08:05:00,53.0,51.9,29.98,WSW,248,2.0,13.0,96,0.00,,,-99.99,Weather View 32 v70,2014-09-21 13:05:00,
2014-09-21 08:10:00,53.0,51.9,29.99,ESE,112,2.0,13.0,96,0.00,,,-99.99,Weather View 32 v70,2014-09-21 13:10:00,
2014-09-21 08:16:00,53.0,51.9,29.99,NW,315,4.0,13.0,96,0.00,,,-99.99,Weather View 32 v70,2014-09-21 13:16:00,
2014-09-21 08:25:00,54.0,52.9,30.00,NNW,338,2.0,13.0,96,0.00,,,-99.99,Weather View 32 v70,2014-09-21 13:25:00,
2014-09-21 08:31:00,54.0,52.9,30.00,WNW,292,6.0,11.0,96,0.00,,,-99.99,Weather View 32 v70,2014-09-21 13:31:00,
2014-09-21 08:40:00,55.0,53.3,30.00,North,0,7.0,11.0,94,0.00,,,-99.99,Weather View 32 v70,2014-09-21 13:40:00,
2014-09-21 08:45:00,55.0,52.7,30.00,NE,45,7.0,13.0,92,0.00,,,-99.99,Weather View 32 v70,2014-09-21 13:45:00,
2014-09-21 08:55:00,56.0,53.4,30.01,East,90,6.0,14.0,91,0.05,,,-99.99,Weather View 32 v70,2014-09-21 13:55:00,
2014-09-21 09:01:00,56.0,53.1,30.01,West,270,2.0,14.0,90,0.00,,,-99.99,Weather View 32 v70,2014-09-21 14:01:00,
2014-09-21 09:10:00,57.0,53.5,30.02,ENE,68,3.0,14.0,88,0.00,,,-99.99,Weather View 32 v70,2014-09-21 14:10:00,
2014-09-21 09:15:00,57.0,53.2,30.02,North,0,4.0,14.0,87,0.00,,,-99.99,Weather View 32 v70,2014-09-21 14:15:00,
2014-09-21 09:25:00,57.0,52.8,30.02,WSW,248,4.0,17.0,86,0.00,,,-99.99,Weather View 32 v70,2014-09-21 14:25:00,
2014-09-21 09:30:00,57.0,52.5,30.03,North,0,8.0,17.0,85,0.00,,,-99.99,Weather View 32 v70,2014-09-21 14:30:00,
2014-09-21 09:40:00,58.0,53.2,30.03,WNW,292,7.0,17.0,84,0.00,,,-99.99,Weather View 32 v70,2014-09-21 14:40:00,
2014-09-21 09:45:00,58.0,53.2,30.04,NW,315,11.0,17.0,84,0.00,,,-99.99,Weather View 32 v70,2014-09-21 14:45:00,
2014-09-21 09:50:00,57.0,52.2,30.04,North,0,2.0,17.0,84,0.00,,,-99.99,Weather View 32 v70,2014-09-21 14:50:00,
2014-09-21 09:55:00,57.0,52.2,30.04,West,270,6.0,17.0,84,0.00,,,-99.99,Weather View 32 v70,2014-09-21 14:55:00,
2014-09-21 10:01:00,57.0,51.9,30.04,NW,315,4.0,17.0,83,0.00,,,-99.99,Weather View 32 v70,2014-09-21 15:01:00,
2014-09-21 10:10:00,57.0,51.9,30.05,NW,315,3.0,17.0,83,0.00,,,-99.99,Weather View 32 v70,2014-09-21 15:10:00,
2014-09-21 10:15:00,57.0,51.9,30.05,WNW,292,4.0,17.0,83,0.00,,,-99.99,Weather View 32 v70,2014-09-21 15:15:00,
2014-09-21 10:20:00,57.0,51.9,30.05,WNW,292,4.0,17.0,83,0.00,,,-99.99,Weather View 32 v70,2014-09-21 15:20:00,
2014-09-21 10:25:00,57.0,51.9,30.05,NNE,22,3.0,17.0,83,0.00,,,-99.99,Weather View 32 v70,2014-09-21 15:25:00,
2014-09-21 10:30:00,57.0,51.9,30.05,NNE,22,3.0,17.0,83,0.00,,,-99.99,Weather View 32 v70,2014-09-21 15:30:00,
2014-09-21 10:40:00,58.0,52.5,30.05,NW,315,3.0,17.0,82,0.00,,,-99.99,Weather View 32 v70,2014-09-21 15:40:00,
2014-09-21 10:45:00,58.0,52.5,30.05,West,270,1.0,17.0,82,0.00,,,-99.99,Weather View 32 v70,2014-09-21 15:45:00,
2014-09-21 10:50:00,58.0,51.8,30.06,NW,315,5.0,17.0,80,0.00,,,-99.99,Weather View 32 v70,2014-09-21 15:50:00,
2014-09-21 10:55:00,58.0,51.8,30.06,West,270,4.0,17.0,80,0.00,,,-99.99,Weather View 32 v70,2014-09-21 15:55:00,
2014-09-21 11:00:00,58.0,51.5,30.06,WNW,292,1.0,17.0,79,0.00,,,-99.99,Weather View 32 v70,2014-09-21 16:00:00,
2014-09-21 11:05:00,58.0,51.2,30.07,NNW,338,4.0,17.0,78,0.00,,,-99.99,Weather View 32 v70,2014-09-21 16:05:00,
2014-09-21 11:15:00,59.0,52.1,30.07,NNW,338,3.0,16.0,78,0.00,,,-99.99,Weather View 32 v70,2014-09-21 16:15:00,
2014-09-21 11:25:00,59.0,52.1,30.08,SW,225,9.0,13.0,78,0.00,,,-99.99,Weather View 32 v70,2014-09-21 16:25:00,
2014-09-21 11:30:00,60.0,53.1,30.08,West,270,4.0,13.0,78,0.00,,,-99.99,Weather View 32 v70,2014-09-21 16:30:00,
2014-09-21 11:40:00,60.0,52.0,30.08,West,270,8.0,16.0,75,0.00,,,-99.99,Weather View 32 v70,2014-09-21 16:40:00,
2014-09-21 11:45:00,60.0,52.0,30.08,NNW,338,4.0,16.0,75,0.00,,,-99.99,Weather View 32 v70,2014-09-21 16:45:00,
2014-09-21 11:55:00,61.0,51.9,30.08,WNW,292,5.0,16.0,72,0.00,,,-99.99,Weather View 32 v70,2014-09-21 16:55:00,
2014-09-21 12:00:00,61.0,51.5,30.08,WNW,292,5.0,16.0,71,0.00,,,-99.99,Weather View 32 v70,2014-09-21 17:00:00,
2014-09-21 12:07:00,61.0,51.5,30.08,WNW,292,5.0,16.0,71,0.00,,,-99.99,Weather View 32 v70,2014-09-21 17:07:00,
2014-09-21 12:15:00,62.0,50.5,30.08,NNW,338,3.0,18.0,66,0.00,,,-99.99,Weather View 32 v70,2014-09-21 17:15:00,
2014-09-21 12:25:00,62.0,50.5,30.08,WNW,292,3.0,18.0,66,0.00,,,-99.99,Weather View 32 v70,2014-09-21 17:25:00,
2014-09-21 12:30:00,62.0,50.5,30.07,WNW,292,10.0,18.0,66,0.00,,,-99.99,Weather View 32 v70,2014-09-21 17:30:00,
2014-09-21 12:40:00,63.0,50.2,30.08,NW,315,8.0,20.0,63,0.00,,,-99.99,Weather View 32 v70,2014-09-21 17:40:00,
2014-09-21 12:50:00,63.0,51.0,30.08,NNW,338,8.0,20.0,65,0.00,,,-99.99,Weather View 32 v70,2014-09-21 17:50:00,
2014-09-21 12:55:00,62.0,50.9,30.08,NNE,22,8.0,20.0,67,0.00,,,-99.99,Weather View 32 v70,2014-09-21 17:55:00,
2014-09-21 13:02:00,63.0,51.8,30.08,WNW,292,3.0,20.0,67,0.00,,,-99.99,Weather View 32 v70,2014-09-21 18:02:00,
2014-09-21 13:09:00,63.0,50.6,30.08,NNW,338,7.0,20.0,64,0.05,,,-99.99,Weather View 32 v70,2014-09-21 18:09:00,
2014-09-21 13:16:00,63.0,50.6,30.08,WNW,292,9.0,20.0,64,0.00,,,-99.99,Weather View 32 v70,2014-09-21 18:16:00,
2014-09-21 13:25:00,63.0,50.6,30.08,WSW,248,5.0,20.0,64,0.00,,,-99.99,Weather View 32 v70,2014-09-21 18:25:00,
2014-09-21 13:30:00,63.0,51.0,30.08,NNW,338,3.0,20.0,65,0.00,,,-99.99,Weather View 32 v70,2014-09-21 18:30:00,
2014-09-21 13:35:00,63.0,51.0,30.08,North,0,10.0,20.0,65,0.00,,,-99.99,Weather View 32 v70,2014-09-21 18:35:00,
2014-09-21 13:40:00,63.0,50.2,30.08,North,0,4.0,16.0,63,0.00,,,-99.99,Weather View 32 v70,2014-09-21 18:40:00,
2014-09-21 13:45:00,64.0,51.1,30.08,West,270,1.0,16.0,63,0.00,,,-99.99,Weather View 32 v70,2014-09-21 18:45:00,
2014-09-21 13:50:00,63.0,49.7,30.08,NW,315,4.0,16.0,62,0.00,,,-99.99,Weather View 32 v70,2014-09-21 18:50:00,
2014-09-21 13:55:00,64.0,51.1,30.07,SW,225,4.0,16.0,63,0.00,,,-99.99,Weather View 32 v70,2014-09-21 18:55:00,
2014-09-21 14:00:00,64.0,50.7,30.08,NNE,22,4.0,16.0,62,0.00,,,-99.99,Weather View 32 v70,2014-09-21 19:00:00,
2014-09-21 14:05:00,64.0,50.2,30.07,WSW,248,3.0,16.0,61,0.00,,,-99.99,Weather View 32 v70,2014-09-21 19:05:00,
2014-09-21 14:11:00,65.0,51.6,30.07,SW,225,3.0,16.0,62,0.00,,,-99.99,Weather View 32 v70,2014-09-21 19:11:00,
2014-09-21 14:20:00,65.0,50.3,30.08,North,0,3.0,17.0,59,0.00,,,-99.99,Weather View 32 v70,2014-09-21 19:20:00,
2014-09-21 14:25:00,64.0,49.3,30.08,NW,315,5.0,17.0,59,0.00,,,-99.99,Weather View 32 v70,2014-09-21 19:25:00,
2014-09-21 14:35:00,64.0,49.8,30.08,NW,315,4.0,17.0,60,0.00,,,-99.99,Weather View 32 v70,2014-09-21 19:35:00,
2014-09-21 14:45:00,65.0,50.3,30.08,West,270,4.0,17.0,59,0.00,,,-99.99,Weather View 32 v70,2014-09-21 19:45:00,
2014-09-21 14:50:00,65.0,50.3,30.08,SW,225,5.0,17.0,59,0.00,,,-99.99,Weather View 32 v70,2014-09-21 19:50:00,
2014-09-21 15:02:00,65.0,49.8,30.08,WNW,292,7.0,17.0,58,0.00,,,-99.99,Weather View 32 v70,2014-09-21 20:02:00,
2014-09-21 15:10:00,65.0,50.7,30.08,South,180,2.0,17.0,60,0.00,,,-99.99,Weather View 32 v70,2014-09-21 20:10:00,
2014-09-21 15:15:00,65.0,49.4,30.08,NNE,22,7.0,17.0,57,0.00,,,-99.99,Weather View 32 v70,2014-09-21 20:15:00,
2014-09-21 15:25:00,65.0,48.4,30.08,WNW,292,4.0,21.0,55,0.00,,,-99.99,Weather View 32 v70,2014-09-21 20:25:00,
2014-09-21 15:30:00,65.0,48.9,30.08,NW,315,11.0,21.0,56,0.00,,,-99.99,Weather View 32 v70,2014-09-21 20:30:00,
2014-09-21 15:40:00,65.0,48.9,30.08,NNE,22,6.0,21.0,56,0.00,,,-99.99,Weather View 32 v70,2014-09-21 20:40:00,
2014-09-21 15:45:00,65.0,48.9,30.08,NW,315,5.0,21.0,56,0.00,,,-99.99,Weather View 32 v70,2014-09-21 20:45:00,
2014-09-21 15:50:00,66.0,50.3,30.08,WNW,292,9.0,21.0,57,0.00,,,-99.99,Weather View 32 v70,2014-09-21 20:50:00,
2014-09-21 16:00:00,66.0,49.3,30.08,NW,315,7.0,21.0,55,0.00,,,-99.99,Weather View 32 v70,2014-09-21 21:00:00,
2014-09-21 16:10:00,66.0,49.3,30.08,NNE,22,14.0,21.0,55,0.00,,,-99.99,Weather View 32 v70,2014-09-21 21:10:00,
2014-09-21 16:15:00,66.0,49.8,30.08,NNE,22,4.0,21.0,56,0.00,,,-99.99,Weather View 32 v70,2014-09-21 21:15:00,
2014-09-21 16:25:00,66.0,49.8,30.09,NNE,22,2.0,18.0,56,0.00,,,-99.99,Weather View 32 v70,2014-09-21 21:25:00,
2014-09-21 16:30:00,66.0,49.8,30.08,NW,315,11.0,18.0,56,0.00,,,-99.99,Weather View 32 v70,2014-09-21 21:30:00,
2014-09-21 16:40:00,66.0,49.8,30.09,NE,45,4.0,18.0,56,0.00,,,-99.99,Weather View 32 v70,2014-09-21 21:40:00,
2014-09-21 16:45:00,66.0,50.3,30.09,NNE,22,5.0,17.0,57,0.00,,,-99.99,Weather View 32 v70,2014-09-21 21:45:00,
2014-09-21 16:55:00,66.0,49.8,30.09,WNW,292,2.0,17.0,56,0.00,,,-99.99,Weather View 32 v70,2014-09-21 21:55:00,
2014-09-21 17:01:00,66.0,49.8,30.09,NE,45,5.0,17.0,56,0.00,,,-99.99,Weather View 32 v70,2014-09-21 22:01:00,
2014-09-21 17:10:00,67.0,50.7,30.09,South,180,3.0,17.0,56,0.00,,,-99.99,Weather View 32 v70,2014-09-21 22:10:00,
2014-09-21 17:15:00,67.0,49.3,30.10,WNW,292,3.0,17.0,53,0.00,,,-99.99,Weather View 32 v70,2014-09-21 22:15:00,
2014-09-21 17:20:00,67.0,49.3,30.09,NE,45,4.0,17.0,53,0.00,,,-99.99,Weather View 32 v70,2014-09-21 22:20:00,
2014-09-21 17:25:00,66.0,47.8,30.10,NE,45,6.0,17.0,52,0.00,,,-99.99,Weather View 32 v70,2014-09-21 22:25:00,
2014-09-21 17:30:00,66.0,47.8,30.10,NW,315,5.0,17.0,52,0.00,,,-99.99,Weather View 32 v70,2014-09-21 22:30:00,
2014-09-21 17:40:00,66.0,48.3,30.10,NNE,22,10.0,17.0,53,0.00,,,-99.99,Weather View 32 v70,2014-09-21 22:40:00,
2014-09-21 17:45:00,66.0,48.8,30.10,West,270,2.0,17.0,54,0.00,,,-99.99,Weather View 32 v70,2014-09-21 22:45:00,
2014-09-21 17:55:00,66.0,48.8,30.10,NNW,338,4.0,13.0,54,0.00,,,-99.99,Weather View 32 v70,2014-09-21 22:55:00,
2014-09-21 18:05:00,66.0,49.3,30.10,North,0,3.0,13.0,55,0.00,,,-99.99,Weather View 32 v70,2014-09-21 23:05:00,
2014-09-21 18:10:00,66.0,49.3,30.10,North,0,2.0,13.0,55,0.00,,,-99.99,Weather View 32 v70,2014-09-21 23:10:00,
2014-09-21 18:15:00,66.0,50.3,30.10,North,0,1.0,13.0,57,0.00,,,-99.99,Weather View 32 v70,2014-09-21 23:15:00,
2014-09-21 18:20:00,65.0,49.4,30.10,NW,315,2.0,13.0,57,0.00,,,-99.99,Weather View 32 v70,2014-09-21 23:20:00,
2014-09-21 18:30:00,64.0,48.9,30.10,NW,315,2.0,13.0,58,0.00,,,-99.99,Weather View 32 v70,2014-09-21 23:30:00,
2014-09-21 18:40:00,64.0,49.8,30.10,North,0,0.0,13.0,60,0.00,,,-99.99,Weather View 32 v70,2014-09-21 23:40:00,
2014-09-21 18:45:00,63.0,49.3,30.10,WNW,292,4.0,9.0,61,0.00,,,-99.99,Weather View 32 v70,2014-09-21 23:45:00,
2014-09-21 18:55:00,63.0,49.7,30.10,NNE,22,0.0,9.0,62,0.00,,,-99.99,Weather View 32 v70,2014-09-21 23:55:00,
2014-09-21 19:01:00,62.0,49.2,30.11,North,0,0.0,9.0,63,0.00,,,-99.99,Weather View 32 v70,2014-09-22 00:01:00,
2014-09-21 19:10:00,62.0,50.1,30.11,NE,45,0.0,9.0,65,0.00,,,-99.99,Weather View 32 v70,2014-09-22 00:10:00,
2014-09-21 19:25:00,61.0,49.9,30.12,NE,45,2.0,6.0,67,0.00,,,-99.99,Weather View 32 v70,2014-09-22 00:25:00,
2014-09-21 19:35:00,60.0,49.0,30.12,North,0,1.0,5.0,67,0.00,,,-99.99,Weather View 32 v70,2014-09-22 00:35:00,
2014-09-21 19:40:00,60.0,49.4,30.13,North,0,0.0,5.0,68,0.00,,,-99.99,Weather View 32 v70,2014-09-22 00:40:00,
2014-09-21 19:45:00,60.0,49.4,30.12,NW,315,0.0,5.0,68,0.00,,,-99.99,Weather View 32 v70,2014-09-22 00:45:00,
2014-09-21 19:55:00,59.0,48.4,30.13,NNW,338,0.0,5.0,68,0.00,,,-99.99,Weather View 32 v70,2014-09-22 00:55:00,
2014-09-21 20:02:00,59.0,48.8,30.13,NNW,338,0.0,5.0,69,0.00,,,-99.99,Weather View 32 v70,2014-09-22 01:02:00,
2014-09-21 20:10:00,58.0,48.6,30.13,NNW,338,0.0,5.0,71,0.00,,,-99.99,Weather View 32 v70,2014-09-22 01:10:00,
2014-09-21 20:15:00,57.0,48.0,30.14,NNW,338,0.0,5.0,72,-0.12,,,-99.99,Weather View 32 v70,2014-09-22 01:15:00,
2014-09-21 20:20:00,57.0,48.8,30.14,NNW,338,0.0,5.0,74,0.00,,,-99.99,Weather View 32 v70,2014-09-22 01:20:00,
2014-09-21 20:26:00,57.0,49.1,30.14,NNW,338,0.0,5.0,75,0.00,,,-99.99,Weather View 32 v70,2014-09-22 01:26:00,
2014-09-21 20:35:00,56.0,48.9,30.15,NNW,338,0.0,4.0,77,0.00,,,-99.99,Weather View 32 v70,2014-09-22 01:35:00,
2014-09-21 20:45:00,55.0,48.3,30.15,NNW,338,0.0,2.0,78,0.00,,,-99.99,Weather View 32 v70,2014-09-22 01:45:00,
2014-09-21 20:55:00,55.0,48.9,30.15,NNW,338,0.0,1.0,80,0.00,,,-99.99,Weather View 32 v70,2014-09-22 01:55:00,
2014-09-21 21:00:00,55.0,49.3,30.16,NNW,338,0.0,1.0,81,0.00,,,-99.99,Weather View 32 v70,2014-09-22 02:00:00,
2014-09-21 21:05:00,54.0,48.3,30.16,NNW,338,0.0,1.0,81,0.00,,,-99.99,Weather View 32 v70,2014-09-22 02:05:00,
2014-09-21 21:15:00,54.0,48.9,30.16,NNW,338,0.0,1.0,83,0.00,,,-99.99,Weather View 32 v70,2014-09-22 02:15:00,
2014-09-21 21:25:00,54.0,49.3,30.16,NNW,338,0.0,1.0,84,0.00,,,-99.99,Weather View 32 v70,2014-09-22 02:25:00,
2014-09-21 21:30:00,54.0,49.3,30.16,NNW,338,0.0,1.0,84,0.00,,,-99.99,Weather View 32 v70,2014-09-22 02:30:00,